Location: Bern�tre
(50.1974°N, 2.0915°E)
Time: 15:46:04
(UTC+00:00)

Resurs 1-3 - Pass Details

Date: 18 September 2020
Orbit: 630 x 632 km, 97.9° (Epoch: 24 October)

Event Time Altitude Azimuth Distance (km) Brightness Sun altitude
Exits shadow 20:01:14 34° 166° (SSE) 1,037 4.3 -19.7°
Maximum altitude 20:03:07 89° 260° (W) 640 3.5 -20.0°
Drops below altitude 10° 20:07:33 10° 346° (NNW) 2,026 6.8 -20.6°
Sets 20:09:45 0° 347° (NNW) 2,939 7.7 -20.9°
